Regional Weather Roundup
Issued by NWS Charleston, WV

Home | Current Version | Previous Version | Graphics & Text | Print | Product List | Glossary On
Versions: 1 2 3 4 5 6 7 8 9 10 11 12 13 14 15 16 17 18 19 20 21 22 23 24 25 26 27 28 29 30 31 32 33 34 35 36 37 38 39 40 41 42 43 44 45 46 47 48 49 50
000
ASUS41 KRLX 031010
RWRRLX
West Virginia Regional Weather Roundup
National Weather Service Charleston WV
600 AM EDT MON AUG 03 2015

Note: "fair" indicates few or no clouds below 12,000 feet with no
significant weather and/or obstructions to visibility.

WVZ003-031100-
Northern Panhandle of West Virginia

CITY           SKY/WX    TMP DP  RH WIND       PRES   REMARKS
WHEELING       MOCLDY    67  59  75 W6        29.90S
$$

WVZ009-031100-
Northwest West Virginia

CITY           SKY/WX    TMP DP  RH WIND       PRES   REMARKS
PARKERSBURG    PTCLDY    62  59  90 CALM      29.94R
$$

WVZ006-031100-
Western West Virginia

CITY           SKY/WX    TMP DP  RH WIND       PRES   REMARKS
HUNTINGTON     CLEAR     62  60  93 CALM      29.89S
$$

WVZ015-031100-
West Central West Virginia

CITY           SKY/WX    TMP DP  RH WIND       PRES   REMARKS
CHARLESTON     PTCLDY    61  60  97 CALM      29.90S
$$

WVZ022-031-031100-
North Central West Virginia

CITY           SKY/WX    TMP DP  RH WIND       PRES   REMARKS
CLARKSBURG     CLEAR     61  58  90 CALM      29.90R
MORGANTOWN     CLEAR     66  58  75 NW3       29.94R
$$

WVZ025-035-042-045-031100-
Southern West Virginia

CITY           SKY/WX    TMP DP  RH WIND       PRES   REMARKS
BECKLEY        CLEAR     61  54  77 CALM      29.98F
LOGAN            N/A     64  59  82 CALM      29.90F
BLUEFIELD      CLEAR     70  53  54 VRB5      30.00F
LEWISBURG      MOCLDY    56  54  92 CALM      29.98F FOG
$$

WVZ047-031100-
Northern Mountains of West Virginia

CITY           SKY/WX    TMP DP  RH WIND       PRES   REMARKS
ELKINS         CLEAR     55  52  89 CALM      29.96S
$$

WVZ052-031100-
Eastern Panhandle of West Virginia

CITY           SKY/WX    TMP DP  RH WIND       PRES   REMARKS
MARTINSBURG    CLEAR     63  58  83 S5        29.86S
PETERSBURG     CLEAR    N/A N/A N/A CALM      29.90S
$$


USA.gov is the U.S. government's official web portal to all federal, state and local government web resources and services.